EW0538 Weather Reports


time (UTC)temp
F
wind
direction
speed
knots
gust
knots
rain 1hr
in
rain 24hr
in
rain mn
in
humidity
%
barometer
mb
20260510160722 59 224 0.0 1.7 0.00 0.00 0.00 28 1017.3
20260510154626 57 196 0.0 2.6 0.00 0.00 0.00 30 1017.8
20260510153620 57 134 0.0 0.0 0.00 0.00 0.00 28 1017.9
20260510152620 56 309 0.0 0.0 0.00 0.00 0.00 32 1018.0
20260510151621 54 311 0.0 0.0 0.00 0.00 0.00 34 1018.1
20260510150557 54 207 0.0 0.0 0.00 0.00 0.00 35 1018.2
20260510145604 53 220 0.0 0.9 0.00 0.00 0.00 33 1018.3
20260510144542 52 223 0.0 0.0 0.00 0.00 0.00 34 1018.4
20260510143603 51 179 0.0 2.6 0.00 0.00 0.00 34 1018.4
20260510142556 50 174 0.0 2.6 0.00 0.00 0.00 36 1018.5
20260510141549 50 328 0.0 0.9 0.00 0.00 0.00 38 1018.5
20260510140613 47 328 0.0 0.0 0.00 0.00 0.00 42 1018.6
20260510135542 45 31 0.0 0.0 0.00 0.00 0.00 44 1018.7
20260510134538 42 30 0.0 0.0 0.00 0.00 0.00 49 1018.6
20260510132426 38 30 0.0 0.0 0.00 0.00 0.00 61 1018.3
20260510131413 37 30 0.0 0.0 0.00 0.00 0.00 62 1018.1
20260510130405 36 30 0.0 0.0 0.00 0.00 0.00 64 1018.0
20260510125336 35 30 0.0 0.0 0.00 0.00 0.00 64 1017.8
20260510124338 34 30 0.0 0.0 0.00 0.00 0.00 64 1017.5
20260510122217 33 30 0.0 0.0 0.00 0.00 0.00 64 1017.0
20260510121241 33 30 0.0 0.0 0.00 0.00 0.00 61 1016.8
20260510120225 33 30 0.0 0.0 0.00 0.00 0.00 61 1016.6
20260510114106 33 30 0.0 0.0 0.00 0.00 0.00 61 1016.1
20260510091205 39 30 0.0 0.0 0.00 0.00 0.00 50 1015.7
20260510084904 39 30 0.0 0.0 0.00 0.00 0.00 49 1015.4
20260510083920 40 30 0.0 0.0 0.00 0.00 0.00 48 1015.2
20260510080644 42 29 0.0 1.7 0.00 0.00 0.00 45 1015.1
20260510075615 43 27 0.0 0.0 0.00 0.00 0.00 43 1015.0
20260510074640 45 189 0.0 1.7 0.00 0.00 0.00 41 1015.0
20260510072541 44 49 0.9 2.6 0.00 0.00 0.00 37 1014.7
20260510070444 42 27 0.0 0.0 0.00 0.00 0.00 44 1014.5
20260510065409 42 75 0.0 0.0 0.00 0.00 0.00 42 1014.3
20260510064359 42 52 0.0 0.0 0.00 0.00 0.00 43 1014.2
20260510063354 43 52 0.0 0.0 0.00 0.00 0.00 41 1013.9
20260510062358 43 52 0.0 0.0 0.00 0.00 0.00 40 1013.8
20260510061419 44 51 0.0 0.0 0.00 0.00 0.00 39 1013.5
20260510060349 44 210 0.0 0.0 0.00 0.00 0.00 37 1013.2
20260510055402 44 32 0.0 0.0 0.00 0.00 0.00 36 1012.9
20260510054335 45 32 0.0 0.0 0.00 0.00 0.00 36 1012.6
20260510053359 45 342 0.0 0.0 0.00 0.00 0.00 39 1012.2
20260510052408 45 30 0.0 0.0 0.00 0.00 0.00 37 1012.0
20260510050223 46 86 0.0 0.0 0.00 0.00 0.00 35 1011.7
20260510045203 47 86 0.0 0.0 0.00 0.00 0.00 32 1011.5
20260510044214 48 85 0.0 0.0 0.00 0.00 0.00 27 1011.2
20260510043238 48 86 0.0 0.0 0.00 0.00 0.00 31 1011.0
20260510042237 47 103 0.0 0.0 0.00 0.00 0.00 32 1010.5
20260510041220 48 179 0.0 0.0 0.00 0.00 0.00 34 1010.3
20260510040243 49 179 0.0 0.0 0.00 0.00 0.00 29 1009.7
20260510035230 49 180 0.0 0.0 0.00 0.00 0.00 30 1009.6
20260510034239 50 180 0.0 0.0 0.00 0.00 0.00 34 1009.4
20260510033217 51 34 0.0 0.0 0.00 0.00 0.00 27 1008.9
20260510032235 53 34 0.0 0.0 0.00 0.00 0.00 18 1008.8
20260510031246 53 34 0.0 0.9 0.00 0.00 0.00 16 1008.6
20260510030212 55 88 0.0 0.0 0.00 0.00 0.00 14 1008.3
20260510024003 58 89 0.0 0.9 0.00 0.00 0.00 11 1007.7
20260510023016 60 66 0.0 0.0 0.00 0.00 0.00 11 1007.7
20260510021951 61 20 0.0 0.0 0.00 0.00 0.00 10 1007.7
20260510021014 62 129 0.0 0.0 0.00 0.00 0.00 11 1007.7
20260510015944 64 196 0.0 0.0 0.00 0.00 0.00 9 1007.5
20260510014943 66 199 0.0 0.0 0.00 0.00 0.00 7 1007.5
20260510013937 67 172 0.0 0.0 0.00 0.00 0.00 2 1007.3
20260510012939 68 90 0.0 0.0 0.00 0.00 0.00 3 1007.2
20260510011955 68 89 0.0 0.0 0.00 0.00 0.00 5 1007.0
20260510011003 69 88 0.0 1.7 0.00 0.00 0.00 5 1006.8
20260510004821 70 196 0.0 0.0 0.00 0.00 0.00 7 1006.6
20260510003823 70 219 0.0 4.3 0.00 0.00 0.00 6 1006.6
20260510002833 70 168 0.0 0.0 0.00 0.00 0.00 7 1006.3
20260510001852 70 167 0.0 0.9 0.00 0.00 0.00 8 1006.3
20260510000908 70 214 0.0 3.5 0.00 0.00 0.00 8 1006.2
20260509235859 71 191 0.0 0.0 0.00 0.00 0.00 10 1006.2
20260509234914 71 188 0.9 3.5 0.00 0.00 0.00 7 1006.2
20260509233931 71 186 0.9 4.3 0.00 0.00 0.00 9 1006.1
20260509232942 71 214 0.9 3.5 0.00 0.00 0.00 9 1006.1
20260509231919 71 193 0.0 5.2 0.00 0.00 0.00 9 1006.3
20260509230925 71 160 1.7 5.2 0.00 0.00 0.00 7 1006.3
20260509225929 71 155 1.7 4.3 0.00 0.00 0.00 8 1006.3
20260509224909 71 200 0.9 3.5 0.00 0.00 0.00 9 1006.4
20260509223851 71 167 0.0 1.7 0.00 0.00 0.00 8 1006.3
20260509222841 71 198 0.9 6.1 0.00 0.00 0.00 8 1006.3
20260509221902 71 264 0.0 7.8 0.00 0.00 0.00 9 1006.3
20260509220925 71 158 1.7 7.8 0.00 0.00 0.00 10 1006.3
20260509215916 71 215 1.7 7.8 0.00 0.00 0.00 11 1006.3
20260509214844 72 163 2.6 7.8 0.00 0.00 0.00 10 1006.5
20260509213851 72 210 2.6 11.3 0.00 0.00 0.00 9 1006.7
20260509212834 73 195 3.5 11.3 0.00 0.00 0.00 9 1006.7
20260509211804 73 185 3.5 9.6 0.00 0.00 0.00 8 1006.8
20260509210748 73 219 3.5 11.3 0.00 0.00 0.00 10 1006.8
20260509205805 72 234 2.6 11.3 0.00 0.00 0.00 9 1006.7
20260509203710 73 185 3.5 9.6 0.00 0.00 0.00 9 1006.9
20260509202714 73 220 4.3 8.7 0.00 0.00 0.00 8 1007.0
20260509201721 72 218 3.5 13.0 0.00 0.00 0.00 9 1007.2
20260509200729 71 191 3.5 13.0 0.00 0.00 0.00 9 1007.4
20260509194629 72 207 3.5 13.9 0.00 0.00 0.00 9 1007.4
20260509193633 72 203 4.3 10.4 0.00 0.00 0.00 7 1007.7
20260509192632 72 199 2.6 11.3 0.00 0.00 0.00 10 1007.7
20260509191656 71 156 3.5 11.3 0.00 0.00 0.00 8 1007.9
20260509190706 72 203 1.7 11.3 0.00 0.00 0.00 8 1008.1
20260509185716 71 91 2.6 12.2 0.00 0.00 0.00 8 1008.0
20260509184650 71 205 4.3 12.2 0.00 0.00 0.00 10 1008.1
20260509183637 72 193 2.6 8.7 0.00 0.00 0.00 11 1008.2
20260509181502 71 208 2.6 8.7 0.00 0.00 0.00 12 1008.3
20260509180503 71 236 2.6 8.7 0.00 0.00 0.00 12 1008.5
20260509175524 70 203 2.6 9.6 0.00 0.00 0.00 13 1008.6
20260509174538 70 175 1.7 9.6 0.00 0.00 0.00 16 1008.7
20260509173507 69 217 2.6 7.0 0.00 0.00 0.00 17 1008.9
20260509172519 68 215 0.9 7.0 0.00 0.00 0.00 19 1009.0
20260509171515 68 158 1.7 6.1 0.00 0.00 0.00 19 1009.2
20260509170459 67 207 0.0 3.5 0.00 0.00 0.00 21 1009.3
20260509165448 66 162 0.0 0.9 0.00 0.00 0.00 23 1009.5
20260509164420 65 200 0.0 2.6 0.00 0.00 0.00 24 1009.8
20260509163445 65 191 0.0 0.9 0.00 0.00 0.00 23 1009.8
20260509161332 62 174 0.0 0.0 0.00 0.00 0.00 26 1010.0